sat.trackr.live / text

‹ back to catalog

CYGFM02

NORAD 41886 · 2016-078C

PAYLOAD INACTIVE UNKNOWN

§ Identity

Operator
Country
US
Launch date
2016-12-15
Launch site
ERAS
Launch vehicle
Mass (kg)
RCS (m²)
0.22

Purposes: earth_obs

External: N2YO · Heavens-Above · Gunter

§ Orbital elements

Epoch: 2026-05-25T00:56:46.340736Z

Period
92.16 min
Inclination
34.9421°
Eccentricity
0.0008993
Mean motion
15.62583404 rev/d
Perigee alt
374.1 km
Apogee alt
386.3 km
Semi-major
6,758.3 km
B*
3.3050e-4
RAAN
17.7391°
Arg perigee
331.1630°
Mean anomaly
28.8599°
Rev number
52,554

§ Raw data

CYGFM021 41886U 16078C   26145.03942524  .00030662  00000+0  33050-3 0  99962 41886  34.9421  17.7391 0008993 331.1630  28.8599 15.62583404525546

JSON: /api/v1/satellites/41886 · /tle

For live sub-satellite position, see the globe view (requires WebGL).

§ Visibility from observer

Set your observer location to see the next 7 days of passes ≥ 10°. The values pass through the URL so the page stays shareable.

No JS? Fill the form by hand. The geolocation button needs JavaScript.